Time,TemperatureF,DewpointF,PressureIn,WindDirection,WindDirectionDegrees,WindSpeedMPH,WindSpeedGustMPH,Humidity,HourlyPrecipIn,Conditions,Clouds,dailyrainin,SolarRadiationWatts/m^2,SoftwareType,DateUTC
2013-03-03 00:00:00,24.4,21.1,29.73,WNW,283,1.9,4.6,87,0.00,-SN,BKN,0.00,0.0,WeatherDisplay:10.37,2013-03-03 05:00:00,
2013-03-03 00:01:00,24.4,21.1,29.73,WNW,287,2.1,4.8,87,0.00,-SN,BKN,0.00,0.0,WeatherDisplay:10.37,2013-03-03 05:01:00,
2013-03-03 00:06:00,24.6,21.0,29.73,WSW,249,0.8,3.5,86,0.00,-SN,BKN,0.00,0.0,WeatherDisplay:10.37,2013-03-03 05:06:00,
2013-03-03 00:11:00,24.3,20.7,29.73,West,274,3.4,7.1,86,0.00,-SN,BKN,0.00,0.0,WeatherDisplay:10.37,2013-03-03 05:11:00,
2013-03-03 00:16:00,24.3,20.7,29.73,WNW,287,3.3,5.8,86,0.00,-SN,BKN,0.00,0.0,WeatherDisplay:10.37,2013-03-03 05:16:00,
2013-03-03 00:21:00,24.1,20.5,29.73,West,270,4.7,5.8,86,0.00,-SN,BKN,0.00,0.0,WeatherDisplay:10.37,2013-03-03 05:21:00,
2013-03-03 00:26:00,24.4,20.9,29.73,WSW,258,2.3,5.8,86,0.00,-SN,BKN,0.00,0.0,WeatherDisplay:10.37,2013-03-03 05:26:00,
2013-03-03 00:31:00,24.3,20.7,29.72,SW,232,2.9,4.6,86,0.00,-SN,BKN,0.00,0.0,WeatherDisplay:10.37,2013-03-03 05:31:00,
2013-03-03 00:36:00,24.3,20.7,29.73,WNW,284,5.2,8.1,86,0.00,-SN,BKN,0.00,0.0,WeatherDisplay:10.37,2013-03-03 05:36:00,
2013-03-03 00:41:00,24.1,20.5,29.72,WSW,237,3.9,6.9,86,0.00,-SN,BKN,0.00,0.0,WeatherDisplay:10.37,2013-03-03 05:41:00,
2013-03-03 00:46:00,24.3,20.7,29.73,WSW,258,4.0,5.8,86,0.00,-SN,BKN,0.00,0.0,WeatherDisplay:10.37,2013-03-03 05:46:00,
2013-03-03 00:51:00,24.3,20.7,29.73,WSW,258,3.3,6.9,86,0.00,-SN,BKN,0.00,0.0,WeatherDisplay:10.37,2013-03-03 05:51:00,
2013-03-03 00:56:00,24.3,20.7,29.73,WSW,239,2.3,4.6,86,0.00,-SN,BKN,0.00,0.0,WeatherDisplay:10.37,2013-03-03 05:56:00,
2013-03-03 01:01:00,24.3,20.9,29.73,West,260,3.4,5.8,87,0.00,-SN,BKN,0.00,0.0,WeatherDisplay:10.37,2013-03-03 06:01:00,
2013-03-03 01:06:00,24.3,20.9,29.73,West,279,4.6,6.9,87,0.00,-SN,BKN,0.00,0.0,WeatherDisplay:10.37,2013-03-03 06:06:00,
2013-03-03 01:11:00,24.3,20.9,29.73,West,276,3.6,5.8,87,0.00,-SN,BKN,0.00,0.0,WeatherDisplay:10.37,2013-03-03 06:11:00,
2013-03-03 01:16:00,24.3,21.2,29.73,West,272,3.5,5.8,88,0.00,-SN,BKN,0.00,0.0,WeatherDisplay:10.37,2013-03-03 06:16:00,
2013-03-03 01:21:00,24.3,21.2,29.73,West,262,3.2,3.5,88,0.00,-SN,BKN,0.00,0.0,WeatherDisplay:10.37,2013-03-03 06:21:00,
2013-03-03 01:26:00,24.3,21.5,29.73,West,273,2.8,8.1,89,0.00,-SN,BKN,0.00,0.0,WeatherDisplay:10.37,2013-03-03 06:26:00,
2013-03-03 01:31:00,24.1,21.3,29.73,NW,304,4.1,4.6,89,0.00,-SN,BKN,0.00,0.0,WeatherDisplay:10.37,2013-03-03 06:31:00,
2013-03-03 01:36:00,24.1,21.6,29.73,West,270,5.0,6.9,90,0.00,-SN,BKN,0.00,0.0,WeatherDisplay:10.37,2013-03-03 06:36:00,
2013-03-03 01:41:00,24.1,21.8,29.73,WNW,285,2.7,4.6,91,0.00,-SN,BKN,0.00,0.0,WeatherDisplay:10.37,2013-03-03 06:41:00,
2013-03-03 01:46:00,24.1,22.1,29.72,WSW,257,3.1,6.9,92,0.00,-SN,BKN,0.00,0.0,WeatherDisplay:10.37,2013-03-03 06:46:00,
2013-03-03 01:51:00,24.1,22.1,29.72,WNW,289,3.5,6.9,92,0.00,-SN,BKN,0.00,0.0,WeatherDisplay:10.37,2013-03-03 06:51:00,
2013-03-03 01:56:00,24.1,21.8,29.72,NW,304,4.8,9.2,91,0.00,-SN,BKN,0.00,0.0,WeatherDisplay:10.37,2013-03-03 06:56:00,
2013-03-03 02:01:00,24.1,21.8,29.72,WNW,296,4.8,6.9,91,0.00,-SN,BKN,0.00,0.0,WeatherDisplay:10.37,2013-03-03 07:01:00,
2013-03-03 02:06:00,24.1,21.8,29.72,NW,308,5.0,7.8,91,0.00,-SN,BKN,0.00,0.0,WeatherDisplay:10.37,2013-03-03 07:06:00,
2013-03-03 02:11:00,24.1,21.8,29.72,NW,308,6.9,9.7,91,0.00,-SN,BKN,0.00,0.0,WeatherDisplay:10.37,2013-03-03 07:11:00,
2013-03-03 02:16:00,23.9,21.9,29.72,WNW,283,6.1,10.4,92,0.00,-SN,BKN,0.00,0.0,WeatherDisplay:10.37,2013-03-03 07:16:00,
2013-03-03 02:21:00,23.9,21.9,29.71,West,271,4.9,6.9,92,0.00,-SN,BKN,0.00,0.0,WeatherDisplay:10.37,2013-03-03 07:21:00,
2013-03-03 02:26:00,23.7,21.7,29.72,WNW,289,5.7,9.2,92,0.00,-SN,BKN,0.00,0.0,WeatherDisplay:10.37,2013-03-03 07:26:00,
2013-03-03 02:31:00,23.7,22.0,29.71,WNW,300,5.5,9.2,93,0.00,-SN,BKN,0.00,0.0,WeatherDisplay:10.37,2013-03-03 07:31:00,
2013-03-03 02:36:00,23.7,22.0,29.72,West,266,5.6,9.2,93,0.00,-SN,BKN,0.00,0.0,WeatherDisplay:10.37,2013-03-03 07:36:00,
2013-03-03 02:41:00,23.5,21.8,29.71,WNW,296,6.4,10.4,93,0.00,-SN,BKN,0.00,0.0,WeatherDisplay:10.37,2013-03-03 07:41:00,
2013-03-03 02:46:00,23.5,21.8,29.71,WNW,291,4.7,10.4,93,0.00,-SN,BKN,0.00,0.0,WeatherDisplay:10.37,2013-03-03 07:46:00,
2013-03-03 02:51:00,23.5,21.8,29.71,West,280,3.6,8.1,93,0.00,-SN,BKN,0.00,0.0,WeatherDisplay:10.37,2013-03-03 07:51:00,
2013-03-03 02:56:00,23.4,21.6,29.71,West,278,4.9,6.9,93,0.00,-SN,BKN,0.00,0.0,WeatherDisplay:10.37,2013-03-03 07:56:00,
2013-03-03 03:01:00,23.4,21.6,29.71,NW,313,7.1,11.5,93,0.00,-SN,BKN,0.00,0.0,WeatherDisplay:10.37,2013-03-03 08:01:00,
2013-03-03 03:06:00,23.5,21.8,29.71,WNW,286,5.1,9.2,93,0.00,-SN,BKN,0.00,0.0,WeatherDisplay:10.37,2013-03-03 08:06:00,
2013-03-03 03:11:00,23.5,21.8,29.71,West,276,4.1,8.1,93,0.00,-SN,BKN,0.00,0.0,WeatherDisplay:10.37,2013-03-03 08:11:00,
2013-03-03 03:16:00,23.2,21.2,29.71,NW,317,6.2,10.4,92,0.00,-SN,BKN,0.00,0.0,WeatherDisplay:10.37,2013-03-03 08:16:00,
2013-03-03 03:21:00,23.4,21.4,29.70,WNW,283,4.6,8.1,92,0.00,-SN,BKN,0.00,0.0,WeatherDisplay:10.37,2013-03-03 08:21:00,
2013-03-03 03:26:00,23.4,21.4,29.70,NW,309,6.5,9.2,92,0.00,-SN,BKN,0.00,0.0,WeatherDisplay:10.37,2013-03-03 08:26:00,
2013-03-03 03:31:00,23.4,21.4,29.70,WNW,291,5.3,8.1,92,0.00,-SN,BKN,0.00,0.0,WeatherDisplay:10.37,2013-03-03 08:31:00,
2013-03-03 03:36:00,23.4,21.4,29.70,West,270,5.0,6.9,92,0.00,-SN,BKN,0.00,0.0,WeatherDisplay:10.37,2013-03-03 08:36:00,
2013-03-03 03:41:00,23.4,21.4,29.70,WNW,283,4.7,7.7,92,0.00,-SN,BKN,0.00,0.0,WeatherDisplay:10.37,2013-03-03 08:41:00,
2013-03-03 03:46:00,23.5,21.8,29.70,West,269,3.4,6.9,93,0.00,-SN,BKN,0.00,0.0,WeatherDisplay:10.37,2013-03-03 08:46:00,
2013-03-03 03:51:00,23.4,21.6,29.71,WNW,286,5.2,8.1,93,0.00,-SN,BKN,0.00,0.0,WeatherDisplay:10.37,2013-03-03 08:51:00,
2013-03-03 03:56:00,23.4,21.6,29.71,West,276,4.4,6.9,93,0.00,-SN,BKN,0.00,0.0,WeatherDisplay:10.37,2013-03-03 08:56:00,
2013-03-03 04:01:00,23.4,21.6,29.71,West,266,3.8,8.1,93,0.00,-SN,BKN,0.00,0.0,WeatherDisplay:10.37,2013-03-03 09:01:00,
2013-03-03 04:06:00,23.2,21.5,29.70,WNW,296,4.7,8.1,93,0.00,-SN,BKN,0.00,0.0,WeatherDisplay:10.37,2013-03-03 09:06:00,
2013-03-03 04:11:00,23.2,21.5,29.71,West,276,5.4,9.2,93,0.00,-SN,BKN,0.00,0.0,WeatherDisplay:10.37,2013-03-03 09:11:00,
2013-03-03 04:16:00,23.4,21.9,29.71,West,279,3.9,6.2,94,0.00,-SN,BKN,0.00,0.0,WeatherDisplay:10.37,2013-03-03 09:16:00,
2013-03-03 04:21:00,23.2,21.7,29.71,West,265,5.4,9.2,94,0.00,-SN,BKN,0.00,0.0,WeatherDisplay:10.37,2013-03-03 09:21:00,
2013-03-03 04:26:00,23.2,21.7,29.71,WNW,283,4.2,4.8,94,0.00,-SN,BKN,0.00,0.0,WeatherDisplay:10.37,2013-03-03 09:26:00,
2013-03-03 04:31:00,23.2,21.7,29.72,WSW,256,3.4,5.8,94,0.00,-SN,BKN,0.00,0.0,WeatherDisplay:10.37,2013-03-03 09:31:00,
2013-03-03 04:36:00,23.2,21.7,29.71,West,274,2.4,5.8,94,0.00,-SN,BKN,0.00,0.0,WeatherDisplay:10.37,2013-03-03 09:36:00,
2013-03-03 04:41:00,23.2,21.7,29.71,West,266,3.4,6.9,94,0.00,-SN,BKN,0.00,0.0,WeatherDisplay:10.37,2013-03-03 09:41:00,
2013-03-03 04:46:00,23.2,22.0,29.71,West,279,3.7,6.9,95,0.00,-SN,BKN,0.00,0.0,WeatherDisplay:10.37,2013-03-03 09:46:00,
2013-03-03 04:51:00,23.0,21.5,29.71,West,274,4.3,6.9,94,0.00,-SN,BKN,0.00,0.0,WeatherDisplay:10.37,2013-03-03 09:51:00,
2013-03-03 04:56:00,23.0,21.5,29.71,WNW,282,4.2,6.9,94,0.00,-SN,BKN,0.00,0.0,WeatherDisplay:10.37,2013-03-03 09:56:00,
2013-03-03 05:01:00,22.5,21.2,29.71,West,262,5.6,8.1,95,0.00,-SN,BKN,0.00,0.0,WeatherDisplay:10.37,2013-03-03 10:01:00,
2013-03-03 05:06:00,22.6,21.4,29.71,WNW,287,4.8,5.8,95,0.00,-SN,BKN,0.00,0.0,WeatherDisplay:10.37,2013-03-03 10:06:00,
2013-03-03 05:11:00,22.8,21.6,29.72,West,259,4.3,5.5,95,0.00,-SN,BKN,0.00,0.0,WeatherDisplay:10.37,2013-03-03 10:11:00,
2013-03-03 05:16:00,22.8,21.4,29.72,WNW,293,3.8,6.9,94,0.00,-SN,BKN,0.00,0.0,WeatherDisplay:10.37,2013-03-03 10:16:00,
2013-03-03 05:21:00,22.5,21.2,29.72,West,268,5.6,8.1,95,0.00,-SN,BKN,0.00,0.0,WeatherDisplay:10.37,2013-03-03 10:21:00,
2013-03-03 05:26:00,22.6,21.2,29.72,West,270,6.4,10.4,94,0.00,-SN,BKN,0.00,0.0,WeatherDisplay:10.37,2013-03-03 10:26:00,
2013-03-03 05:31:00,22.5,21.2,29.72,West,279,3.7,5.8,95,0.00,-SN,BKN,0.00,0.0,WeatherDisplay:10.37,2013-03-03 10:31:00,
2013-03-03 05:36:00,22.3,21.3,29.71,West,276,4.3,8.1,96,0.00,-SN,BKN,0.00,0.0,WeatherDisplay:10.37,2013-03-03 10:36:00,
2013-03-03 05:41:00,22.3,21.1,29.72,West,279,5.0,6.9,95,0.00,-SN,BKN,0.00,0.0,WeatherDisplay:10.37,2013-03-03 10:41:00,
2013-03-03 05:46:00,22.3,21.1,29.71,West,277,5.5,9.2,95,0.00,-SN,BKN,0.00,0.0,WeatherDisplay:10.37,2013-03-03 10:46:00,
2013-03-03 05:51:00,22.1,20.6,29.72,West,262,4.6,9.2,94,0.00,-SN,BKN,0.00,0.0,WeatherDisplay:10.37,2013-03-03 10:51:00,
2013-03-03 05:56:00,21.6,20.1,29.71,West,271,6.1,9.2,94,0.00,-SN,BKN,0.00,0.0,WeatherDisplay:10.37,2013-03-03 10:56:00,
2013-03-03 06:01:00,21.9,20.5,29.71,NW,304,6.4,8.1,94,0.00,-SN,BKN,0.00,0.0,WeatherDisplay:10.37,2013-03-03 11:01:00,
2013-03-03 06:06:00,21.9,20.5,29.72,WSW,257,6.3,10.4,94,0.00,-SN,BKN,0.00,0.0,WeatherDisplay:10.37,2013-03-03 11:06:00,
2013-03-03 06:11:00,22.1,20.9,29.72,West,272,4.4,5.8,95,0.00,-SN,BKN,0.00,0.0,WeatherDisplay:10.37,2013-03-03 11:11:00,
2013-03-03 06:16:00,21.9,20.7,29.72,WSW,240,6.5,9.2,95,0.00,-SN,BKN,0.00,0.0,WeatherDisplay:10.37,2013-03-03 11:16:00,
2013-03-03 06:21:00,22.1,20.9,29.72,WNW,294,5.7,7.5,95,0.00,-SN,BKN,0.00,0.0,WeatherDisplay:10.37,2013-03-03 11:21:00,
2013-03-03 06:26:00,21.7,20.3,29.72,NW,313,7.9,9.2,94,0.00,-SN,BKN,0.00,0.0,WeatherDisplay:10.37,2013-03-03 11:26:00,
2013-03-03 06:31:00,21.7,20.3,29.72,WNW,291,5.6,8.1,94,0.00,-SN,BKN,0.00,0.0,WeatherDisplay:10.37,2013-03-03 11:31:00,
2013-03-03 06:36:00,21.7,20.5,29.72,WNW,296,7.5,9.2,95,0.00,-SN,BKN,0.00,0.0,WeatherDisplay:10.37,2013-03-03 11:36:00,
2013-03-03 06:41:00,21.6,20.4,29.72,WNW,294,6.4,9.2,95,0.00,-SN,BKN,0.00,0.0,WeatherDisplay:10.37,2013-03-03 11:41:00,
2013-03-03 06:46:00,21.7,20.3,29.72,WNW,287,6.0,8.1,94,0.00,-SN,BKN,0.00,0.0,WeatherDisplay:10.37,2013-03-03 11:46:00,
2013-03-03 06:51:00,21.9,20.7,29.72,West,276,4.8,4.8,95,0.00,-SN,BKN,0.00,0.0,WeatherDisplay:10.37,2013-03-03 11:51:00,
2013-03-03 06:56:00,21.6,20.4,29.72,West,276,5.3,8.1,95,0.00,-SN,BKN,0.00,0.0,WeatherDisplay:10.37,2013-03-03 11:56:00,
2013-03-03 07:01:00,21.6,20.4,29.72,WNW,301,5.1,8.1,95,0.00,-SN,BKN,0.00,0.0,WeatherDisplay:10.37,2013-03-03 12:01:00,
2013-03-03 07:06:00,21.6,20.4,29.72,WNW,294,6.5,10.4,95,0.00,-SN,BKN,0.00,0.0,WeatherDisplay:10.37,2013-03-03 12:06:00,
2013-03-03 07:11:00,21.4,20.2,29.72,NW,312,6.8,8.1,95,0.00,-SN,BKN,0.00,0.0,WeatherDisplay:10.37,2013-03-03 12:11:00,
2013-03-03 07:16:00,21.6,20.4,29.72,NW,312,6.0,8.1,95,0.00,-SN,BKN,0.00,0.0,WeatherDisplay:10.37,2013-03-03 12:16:00,
2013-03-03 07:21:00,21.4,20.2,29.73,WNW,296,6.7,9.2,95,0.00,-SN,BKN,0.00,0.0,WeatherDisplay:10.37,2013-03-03 12:21:00,
2013-03-03 07:26:00,21.4,20.2,29.73,WNW,291,7.6,11.5,95,0.00,-SN,BKN,0.00,0.0,WeatherDisplay:10.37,2013-03-03 12:26:00,
2013-03-03 07:31:00,21.2,20.0,29.73,NW,312,8.5,12.7,95,0.00,-SN,BKN,0.00,0.0,WeatherDisplay:10.37,2013-03-03 12:31:00,
2013-03-03 07:36:00,21.4,20.2,29.73,West,270,5.7,9.2,95,0.00,-SN,BKN,0.00,0.0,WeatherDisplay:10.37,2013-03-03 12:36:00,
2013-03-03 07:41:00,21.4,19.9,29.73,West,276,5.9,8.1,94,0.00,-SN,BKN,0.00,0.0,WeatherDisplay:10.37,2013-03-03 12:41:00,
2013-03-03 07:46:00,21.0,19.6,29.73,West,276,7.1,10.5,94,0.00,-SN,BKN,0.00,0.0,WeatherDisplay:10.37,2013-03-03 12:46:00,
2013-03-03 07:51:00,20.8,19.4,29.74,NW,317,7.6,7.8,94,0.00,-SN,BKN,0.00,102.6,WeatherDisplay:10.37,2013-03-03 12:51:00,
2013-03-03 07:56:00,21.0,19.6,29.74,NW,313,8.1,10.4,94,0.00,-SN,BKN,0.00,116.4,WeatherDisplay:10.37,2013-03-03 12:56:00,
2013-03-03 08:01:00,21.0,19.8,29.74,NW,313,5.5,9.2,95,0.00,-SN,BKN,0.00,120.4,WeatherDisplay:10.37,2013-03-03 13:01:00,
2013-03-03 08:06:00,21.4,20.2,29.73,NW,317,4.6,7.9,95,0.00,-SN,BKN,0.00,142.2,WeatherDisplay:10.37,2013-03-03 13:06:00,
2013-03-03 08:11:00,21.4,19.9,29.74,NW,323,6.1,9.2,94,0.00,-SN,BKN,0.00,155.9,WeatherDisplay:10.37,2013-03-03 13:11:00,
2013-03-03 08:16:00,21.4,20.2,29.73,WNW,302,6.8,10.4,95,0.00,-SN,BKN,0.00,160.0,WeatherDisplay:10.37,2013-03-03 13:16:00,
2013-03-03 08:21:00,21.0,19.3,29.74,WNW,293,7.0,8.1,93,0.00,-SN,BKN,0.00,155.9,WeatherDisplay:10.37,2013-03-03 13:21:00,
2013-03-03 08:26:00,21.0,19.3,29.73,WNW,289,7.4,10.4,93,0.00,-SN,BKN,0.00,139.8,WeatherDisplay:10.37,2013-03-03 13:26:00,
2013-03-03 08:31:00,21.0,19.3,29.74,WNW,295,9.0,13.8,93,0.00,-SN,BKN,0.00,128.5,WeatherDisplay:10.37,2013-03-03 13:31:00,
2013-03-03 08:36:00,20.8,19.1,29.74,NW,304,8.3,11.5,93,0.00,-SN,BKN,0.00,130.1,WeatherDisplay:10.37,2013-03-03 13:36:00,
2013-03-03 08:41:00,21.0,19.8,29.74,WNW,299,8.2,10.4,95,0.00,-SN,BKN,0.00,151.9,WeatherDisplay:10.37,2013-03-03 13:41:00,
2013-03-03 08:46:00,21.2,19.7,29.74,NW,313,5.7,9.2,94,0.00,-SN,BKN,0.00,161.6,WeatherDisplay:10.37,2013-03-03 13:46:00,
2013-03-03 08:51:00,20.8,19.1,29.74,WNW,288,7.8,10.4,93,0.00,-SN,BKN,0.00,189.1,WeatherDisplay:10.37,2013-03-03 13:51:00,
2013-03-03 08:56:00,20.8,19.1,29.73,West,271,9.3,11.5,93,0.00,-SN,BKN,0.00,197.2,WeatherDisplay:10.37,2013-03-03 13:56:00,
2013-03-03 09:01:00,20.7,18.7,29.74,WNW,298,5.9,9.2,92,0.00,-SN,BKN,0.00,195.5,WeatherDisplay:10.37,2013-03-03 14:01:00,
2013-03-03 09:06:00,21.0,19.6,29.74,NW,322,5.4,9.2,94,0.00,-SN,BKN,0.00,177.8,WeatherDisplay:10.37,2013-03-03 14:06:00,
2013-03-03 09:11:00,20.7,19.0,29.74,WNW,286,6.0,9.3,93,0.00,-SN,BKN,0.00,187.5,WeatherDisplay:10.37,2013-03-03 14:11:00,
2013-03-03 09:16:00,21.2,19.7,29.74,WNW,297,5.2,8.1,94,0.00,-SN,BKN,0.00,169.7,WeatherDisplay:10.37,2013-03-03 14:16:00,
2013-03-03 09:21:00,21.2,19.5,29.74,WNW,294,4.1,5.8,93,0.00,-SN,BKN,0.00,171.3,WeatherDisplay:10.37,2013-03-03 14:21:00,
2013-03-03 09:26:00,20.5,18.8,29.74,West,271,5.6,8.1,93,0.00,-SN,BKN,0.00,165.6,WeatherDisplay:10.37,2013-03-03 14:26:00,
2013-03-03 09:31:00,20.5,18.5,29.74,WNW,289,5.8,10.4,92,0.00,-SN,BKN,0.00,171.3,WeatherDisplay:10.37,2013-03-03 14:31:00,
2013-03-03 09:36:00,21.0,19.3,29.73,WNW,284,4.2,8.1,93,0.00,-SN,BKN,0.00,185.0,WeatherDisplay:10.37,2013-03-03 14:36:00,
2013-03-03 09:41:00,20.5,18.5,29.73,WSW,249,5.9,10.4,92,0.00,-SN,BKN,0.00,197.2,WeatherDisplay:10.37,2013-03-03 14:41:00,
2013-03-03 09:46:00,20.7,18.7,29.74,NW,315,6.6,10.4,92,0.00,-SN,BKN,0.00,193.1,WeatherDisplay:10.37,2013-03-03 14:46:00,
2013-03-03 09:51:00,21.0,19.1,29.73,NW,318,5.9,9.2,92,0.00,-SN,BKN,0.00,234.3,WeatherDisplay:10.37,2013-03-03 14:51:00,
2013-03-03 09:56:00,20.8,18.6,29.74,WNW,288,7.0,10.4,91,0.00,-SN,BKN,0.00,236.7,WeatherDisplay:10.37,2013-03-03 14:56:00,
2013-03-03 10:01:00,21.0,18.8,29.73,WNW,285,6.3,9.2,91,0.00,-SN,BKN,0.00,232.7,WeatherDisplay:10.37,2013-03-03 15:01:00,
2013-03-03 10:06:00,20.8,18.4,29.73,WSW,255,3.8,6.9,90,0.00,-SN,BKN,0.00,242.4,WeatherDisplay:10.37,2013-03-03 15:06:00,
2013-03-03 10:11:00,20.7,18.2,29.73,West,275,7.0,10.4,90,0.00,-SN,BKN,0.00,268.3,WeatherDisplay:10.37,2013-03-03 15:11:00,
2013-03-03 10:16:00,21.4,18.9,29.73,WSW,254,5.3,6.9,90,0.00,-SN,BKN,0.00,313.5,WeatherDisplay:10.37,2013-03-03 15:16:00,
2013-03-03 10:21:00,21.4,18.9,29.73,NW,312,6.5,8.1,90,0.00,-SN,BKN,0.00,345.0,WeatherDisplay:10.37,2013-03-03 15:21:00,
2013-03-03 10:26:00,21.4,18.6,29.73,NW,310,8.1,10.4,89,0.00,-SN,BKN,0.00,321.6,WeatherDisplay:10.37,2013-03-03 15:26:00,
2013-03-03 10:31:00,21.6,18.3,29.73,WNW,294,3.5,9.2,87,0.00,-SN,BKN,0.00,321.6,WeatherDisplay:10.37,2013-03-03 15:31:00,
2013-03-03 10:36:00,21.0,17.8,29.73,West,270,4.8,10.4,87,0.00,-SN,BKN,0.00,276.3,WeatherDisplay:10.37,2013-03-03 15:36:00,
2013-03-03 10:41:00,21.4,18.9,29.73,WNW,302,7.8,11.5,90,0.00,-SN,BKN,0.00,272.3,WeatherDisplay:10.37,2013-03-03 15:41:00,
2013-03-03 10:46:00,21.0,18.3,29.73,West,280,6.0,11.5,89,0.00,-SN,BKN,0.00,284.4,WeatherDisplay:10.37,2013-03-03 15:46:00,
2013-03-03 10:51:00,21.4,18.6,29.72,West,270,8.8,12.7,89,0.00,-SN,BKN,0.00,339.4,WeatherDisplay:10.37,2013-03-03 15:51:00,
2013-03-03 10:56:00,21.2,17.7,29.72,WNW,289,7.2,9.2,86,0.00,-SN,BKN,0.00,315.9,WeatherDisplay:10.37,2013-03-03 15:56:00,
2013-03-03 11:01:00,21.0,17.8,29.73,WNW,300,6.8,11.5,87,0.00,-SN,BKN,0.00,341.0,WeatherDisplay:10.37,2013-03-03 16:01:00,
2013-03-03 11:06:00,21.6,18.6,29.73,WNW,294,8.0,11.7,88,0.00,-SN,BKN,0.00,335.3,WeatherDisplay:10.37,2013-03-03 16:06:00,
2013-03-03 11:11:00,21.0,17.2,29.73,West,265,6.1,9.2,85,0.00,-SN,BKN,0.00,329.7,WeatherDisplay:10.37,2013-03-03 16:11:00,
2013-03-03 11:16:00,21.6,17.7,29.72,NW,312,5.1,6.9,85,0.00,-SN,BKN,0.00,341.0,WeatherDisplay:10.37,2013-03-03 16:16:00,
2013-03-03 11:21:00,21.6,18.0,29.72,WNW,290,4.4,9.2,86,0.00,-SN,BKN,0.00,327.2,WeatherDisplay:10.37,2013-03-03 16:21:00,
2013-03-03 11:26:00,21.7,18.2,29.73,West,275,4.4,11.5,86,0.00,-SN,BKN,0.00,299.8,WeatherDisplay:10.37,2013-03-03 16:26:00,
2013-03-03 11:31:00,21.6,18.0,29.73,WNW,294,7.4,13.8,86,0.00,-SN,BKN,0.00,311.9,WeatherDisplay:10.37,2013-03-03 16:31:00,
2013-03-03 11:36:00,21.2,17.7,29.72,NW,317,7.3,8.1,86,0.00,-SN,BKN,0.00,303.8,WeatherDisplay:10.37,2013-03-03 16:36:00,
2013-03-03 11:41:00,21.0,17.2,29.73,SSW,193,5.2,10.4,85,0.00,-SN,BKN,0.00,303.8,WeatherDisplay:10.37,2013-03-03 16:41:00,
2013-03-03 11:46:00,21.7,18.2,29.73,WNW,283,5.0,9.2,86,0.00,-SN,BKN,0.00,299.8,WeatherDisplay:10.37,2013-03-03 16:46:00,
2013-03-03 11:51:00,22.5,18.9,29.73,NW,307,6.1,12.1,86,0.00,-SN,BKN,0.00,295.7,WeatherDisplay:10.37,2013-03-03 16:51:00,
2013-03-03 11:56:00,21.2,16.8,29.72,West,262,5.8,8.1,83,0.00,-SN,BKN,0.00,294.1,WeatherDisplay:10.37,2013-03-03 16:56:00,
2013-03-03 12:01:00,21.4,17.3,29.72,WNW,296,5.8,9.2,84,0.00,-SN,BKN,0.00,311.9,WeatherDisplay:10.37,2013-03-03 17:01:00,
2013-03-03 12:06:00,21.6,17.2,29.73,West,271,5.1,9.2,83,0.00,-SN,BKN,0.00,315.9,WeatherDisplay:10.37,2013-03-03 17:06:00,
2013-03-03 12:11:00,21.9,17.8,29.72,WNW,303,5.6,9.2,84,0.00,-SN,BKN,0.00,276.3,WeatherDisplay:10.37,2013-03-03 17:11:00,
2013-03-03 12:16:00,21.9,17.8,29.72,WNW,294,8.2,10.4,84,0.00,-SN,BKN,0.00,280.4,WeatherDisplay:10.37,2013-03-03 17:16:00,
2013-03-03 12:21:00,21.9,18.1,29.72,West,265,4.3,8.1,85,0.00,-SN,BKN,0.00,268.3,WeatherDisplay:10.37,2013-03-03 17:21:00,
2013-03-03 12:26:00,21.7,17.7,29.72,SSW,210,4.4,8.1,84,0.00,-SN,BKN,0.00,276.3,WeatherDisplay:10.37,2013-03-03 17:26:00,
2013-03-03 12:31:00,21.4,17.3,29.72,West,281,5.6,6.9,84,0.00,-SN,BKN,0.00,282.0,WeatherDisplay:10.37,2013-03-03 17:31:00,
2013-03-03 12:36:00,20.8,17.0,29.72,SW,227,5.1,8.1,85,0.00,-SN,BKN,0.00,248.9,WeatherDisplay:10.37,2013-03-03 17:36:00,
2013-03-03 12:41:00,21.2,17.1,29.72,West,262,6.4,9.2,84,0.00,-SN,BKN,0.00,276.3,WeatherDisplay:10.37,2013-03-03 17:41:00,
2013-03-03 12:46:00,21.6,17.5,29.72,West,270,7.2,10.4,84,0.00,-SN,BKN,0.00,278.0,WeatherDisplay:10.37,2013-03-03 17:46:00,
2013-03-03 12:51:00,21.6,17.5,29.72,West,273,6.0,7.5,84,0.00,-SN,BKN,0.00,284.4,WeatherDisplay:10.37,2013-03-03 17:51:00,
2013-03-03 12:56:00,21.6,17.5,29.72,WNW,294,8.9,13.8,84,0.00,-SN,BKN,0.00,276.3,WeatherDisplay:10.37,2013-03-03 17:56:00,
2013-03-03 13:01:00,22.1,18.0,29.72,WNW,284,5.1,9.2,84,0.00,-SN,BKN,0.00,286.0,WeatherDisplay:10.37,2013-03-03 18:01:00,
2013-03-03 13:06:00,21.9,17.8,29.71,West,260,6.0,16.1,84,0.00,-SN,BKN,0.00,284.4,WeatherDisplay:10.37,2013-03-03 18:06:00,
2013-03-03 13:11:00,21.7,17.4,29.71,WSW,244,4.8,8.1,83,0.00,-SN,BKN,0.00,294.1,WeatherDisplay:10.37,2013-03-03 18:11:00,
2013-03-03 13:16:00,21.4,16.7,29.71,West,279,6.1,8.1,82,0.00,-SN,BKN,0.00,303.8,WeatherDisplay:10.37,2013-03-03 18:16:00,
2013-03-03 13:21:00,21.9,17.5,29.70,WSW,240,5.2,6.9,83,0.00,-SN,BKN,0.00,272.3,WeatherDisplay:10.37,2013-03-03 18:21:00,
2013-03-03 13:26:00,21.6,17.2,29.70,West,268,7.0,9.2,83,0.00,-SN,BKN,0.00,272.3,WeatherDisplay:10.37,2013-03-03 18:26:00,
2013-03-03 13:31:00,21.7,17.1,29.70,SW,232,7.0,10.4,82,0.00,-SN,BKN,0.00,282.0,WeatherDisplay:10.37,2013-03-03 18:31:00,
2013-03-03 13:36:00,21.6,16.9,29.70,SW,227,7.9,10.4,82,0.00,-SN,BKN,0.00,291.7,WeatherDisplay:10.37,2013-03-03 18:36:00,
2013-03-03 13:41:00,21.6,17.2,29.70,WSW,257,8.7,11.5,83,0.00,-SN,BKN,0.00,278.0,WeatherDisplay:10.37,2013-03-03 18:41:00,
2013-03-03 13:46:00,21.9,17.5,29.70,West,265,5.1,9.2,83,0.00,-SN,BKN,0.00,280.4,WeatherDisplay:10.37,2013-03-03 18:46:00,
2013-03-03 13:51:00,22.3,17.9,29.70,West,266,5.8,9.2,83,0.00,-SN,BKN,0.00,264.2,WeatherDisplay:10.37,2013-03-03 18:51:00,
2013-03-03 13:56:00,21.9,17.5,29.70,WSW,252,6.7,11.5,83,0.00,-SN,BKN,0.00,254.5,WeatherDisplay:10.37,2013-03-03 18:56:00,
2013-03-03 14:01:00,21.9,17.3,29.70,WNW,287,7.7,12.7,82,0.00,-SN,BKN,0.00,282.0,WeatherDisplay:10.37,2013-03-03 19:01:00,
2013-03-03 14:06:00,21.9,17.3,29.70,SW,231,5.5,9.2,82,0.00,-SN,BKN,0.00,280.4,WeatherDisplay:10.37,2013-03-03 19:06:00,
2013-03-03 14:11:00,22.3,18.2,29.70,WSW,258,4.0,6.4,84,0.00,-SN,BKN,0.00,258.6,WeatherDisplay:10.37,2013-03-03 19:11:00,
2013-03-03 14:16:00,22.3,17.9,29.70,SSW,203,6.4,9.2,83,0.00,-SN,BKN,0.00,250.5,WeatherDisplay:10.37,2013-03-03 19:16:00,
2013-03-03 14:21:00,22.3,17.6,29.71,West,275,8.1,13.8,82,0.00,-SN,BKN,0.00,282.0,WeatherDisplay:10.37,2013-03-03 19:21:00,
2013-03-03 14:26:00,21.7,17.1,29.71,SW,221,7.6,13.8,82,0.00,-SN,BKN,0.00,349.1,WeatherDisplay:10.37,2013-03-03 19:26:00,
2013-03-03 14:31:00,21.4,16.7,29.70,WSW,247,6.2,8.1,82,0.00,-SN,BKN,0.00,323.2,WeatherDisplay:10.37,2013-03-03 19:31:00,
2013-03-03 14:36:00,21.6,16.6,29.70,WSW,257,7.3,10.9,81,0.00,-SN,BKN,0.00,483.2,WeatherDisplay:10.37,2013-03-03 19:36:00,
2013-03-03 14:41:00,22.5,17.5,29.70,West,268,6.4,9.2,81,0.00,-SN,BKN,0.00,439.6,WeatherDisplay:10.37,2013-03-03 19:41:00,
2013-03-03 14:46:00,22.3,17.0,29.70,WSW,252,6.8,9.2,80,0.00,-SN,BKN,0.00,341.0,WeatherDisplay:10.37,2013-03-03 19:46:00,
2013-03-03 14:51:00,22.3,17.3,29.70,WNW,292,5.0,6.9,81,0.00,-SN,BKN,0.00,368.4,WeatherDisplay:10.37,2013-03-03 19:51:00,
2013-03-03 14:56:00,22.3,17.3,29.70,SW,227,5.7,8.1,81,0.00,-SN,BKN,0.00,354.7,WeatherDisplay:10.37,2013-03-03 19:56:00,
2013-03-03 15:01:00,23.4,18.1,29.70,West,263,8.2,11.5,80,0.00,-SN,BKN,0.00,357.1,WeatherDisplay:10.37,2013-03-03 20:01:00,
2013-03-03 15:06:00,23.0,17.2,29.71,West,273,8.8,15.0,78,0.00,-SN,BKN,0.00,262.6,WeatherDisplay:10.37,2013-03-03 20:06:00,
2013-03-03 15:11:00,22.5,16.6,29.70,West,275,8.6,12.7,78,0.00,-SN,BKN,0.00,250.5,WeatherDisplay:10.37,2013-03-03 20:11:00,
2013-03-03 15:16:00,22.8,17.6,29.70,West,273,7.5,10.4,80,0.00,-SN,BKN,0.00,244.8,WeatherDisplay:10.37,2013-03-03 20:16:00,
2013-03-03 15:21:00,22.8,17.9,29.70,WNW,291,9.9,13.0,81,0.00,-SN,BKN,0.00,224.6,WeatherDisplay:10.37,2013-03-03 20:21:00,
2013-03-03 15:26:00,22.8,18.1,29.71,West,280,10.5,16.1,82,0.00,-SN,BKN,0.00,201.2,WeatherDisplay:10.37,2013-03-03 20:26:00,
2013-03-03 15:31:00,22.8,18.1,29.71,WNW,288,8.3,13.8,82,0.00,-SN,BKN,0.00,173.7,WeatherDisplay:10.37,2013-03-03 20:31:00,
2013-03-03 15:36:00,23.2,18.5,29.71,WNW,283,8.0,10.4,82,0.00,-SN,BKN,0.00,179.4,WeatherDisplay:10.37,2013-03-03 20:36:00,
2013-03-03 15:41:00,22.6,18.3,29.71,West,268,10.3,13.8,83,0.00,-SN,BKN,0.00,195.5,WeatherDisplay:10.37,2013-03-03 20:41:00,
2013-03-03 15:46:00,22.5,17.8,29.71,South,183,8.5,12.7,82,0.00,-SN,BKN,0.00,169.7,WeatherDisplay:10.37,2013-03-03 20:46:00,
2013-03-03 15:51:00,22.5,17.8,29.71,West,265,8.0,12.7,82,0.00,-SN,BKN,0.00,165.6,WeatherDisplay:10.37,2013-03-03 20:51:00,
2013-03-03 15:56:00,22.6,18.0,29.70,WSW,257,8.6,15.0,82,0.00,-SN,BKN,0.00,164.0,WeatherDisplay:10.37,2013-03-03 20:56:00,
2013-03-03 16:01:00,22.6,17.7,29.71,West,263,6.6,11.5,81,0.00,-SN,BKN,0.00,153.5,WeatherDisplay:10.37,2013-03-03 21:01:00,
2013-03-03 16:06:00,22.6,18.0,29.71,West,271,5.8,8.6,82,0.00,-SN,BKN,0.00,143.8,WeatherDisplay:10.37,2013-03-03 21:06:00,
2013-03-03 16:11:00,23.2,18.5,29.71,SW,236,9.0,12.7,82,0.00,-SN,BKN,0.00,151.9,WeatherDisplay:10.37,2013-03-03 21:11:00,
2013-03-03 16:16:00,22.6,18.5,29.71,WSW,253,5.8,10.4,84,0.05,-SN,BKN,0.05,150.3,WeatherDisplay:10.37,2013-03-03 21:16:00,
2013-03-03 16:21:00,22.6,18.8,29.71,SSW,209,6.6,11.5,85,0.05,-SN,BKN,0.05,146.2,WeatherDisplay:10.37,2013-03-03 21:21:00,
2013-03-03 16:26:00,22.5,18.4,29.71,West,262,6.4,12.7,84,0.05,-SN,BKN,0.05,147.9,WeatherDisplay:10.37,2013-03-03 21:26:00,
2013-03-03 16:31:00,22.8,18.7,29.72,West,270,7.5,11.5,84,0.05,-SN,BKN,0.05,122.0,WeatherDisplay:10.37,2013-03-03 21:31:00,
2013-03-03 16:36:00,23.2,19.1,29.72,WSW,237,5.0,9.2,84,0.05,-SN,BKN,0.05,100.2,WeatherDisplay:10.37,2013-03-03 21:36:00,
2013-03-03 16:41:00,23.0,18.9,29.72,SSW,206,3.0,5.8,84,0.05,-SN,BKN,0.05,102.6,WeatherDisplay:10.37,2013-03-03 21:41:00,
2013-03-03 16:46:00,23.2,18.8,29.72,WNW,296,7.6,12.7,83,0.05,-SN,BKN,0.05,106.7,WeatherDisplay:10.37,2013-03-03 21:46:00,
2013-03-03 16:51:00,22.8,18.4,29.72,WSW,242,6.5,9.2,83,0.05,-SN,BKN,0.05,88.9,WeatherDisplay:10.37,2013-03-03 21:51:00,
2013-03-03 16:56:00,22.8,18.7,29.72,WNW,292,6.0,9.2,84,0.05,-SN,BKN,0.05,71.1,WeatherDisplay:10.37,2013-03-03 21:56:00,
2013-03-03 17:01:00,23.0,18.6,29.72,WNW,291,8.9,15.0,83,0.05,-SN,BKN,0.05,65.4,WeatherDisplay:10.37,2013-03-03 22:01:00,
2013-03-03 17:06:00,23.2,18.5,29.72,WSW,249,5.3,8.1,82,0.05,-SN,BKN,0.05,59.0,WeatherDisplay:10.37,2013-03-03 22:06:00,
2013-03-03 17:11:00,23.2,18.8,29.72,West,265,3.5,5.8,83,0.05,-SN,BKN,0.05,49.3,WeatherDisplay:10.37,2013-03-03 22:11:00,
2013-03-03 17:16:00,22.3,18.2,29.72,SW,223,7.4,9.2,84,0.00,-SN,BKN,0.05,41.2,WeatherDisplay:10.37,2013-03-03 22:16:00,
2013-03-03 17:21:00,22.3,18.7,29.72,WNW,284,5.7,9.2,86,0.00,-SN,BKN,0.05,35.6,WeatherDisplay:10.37,2013-03-03 22:21:00,
2013-03-03 17:26:00,22.6,19.1,29.72,WSW,253,5.4,8.1,86,0.00,-SN,BKN,0.05,29.9,WeatherDisplay:10.37,2013-03-03 22:26:00,
2013-03-03 17:31:00,22.5,19.2,29.72,SSW,213,6.4,11.5,87,0.00,-SN,BKN,0.05,21.8,WeatherDisplay:10.37,2013-03-03 22:31:00,
2013-03-03 17:36:00,22.5,19.2,29.72,SW,221,5.7,10.4,87,0.00,-SN,BKN,0.05,16.2,WeatherDisplay:10.37,2013-03-03 22:36:00,
2013-03-03 17:41:00,22.6,19.6,29.72,WSW,248,8.4,11.5,88,0.00,-SN,BKN,0.05,16.2,WeatherDisplay:10.37,2013-03-03 22:41:00,
2013-03-03 17:46:00,22.8,19.8,29.73,West,262,4.5,8.1,88,0.00,-SN,BKN,0.05,12.1,WeatherDisplay:10.37,2013-03-03 22:46:00,
2013-03-03 17:51:00,22.5,19.7,29.73,West,260,5.7,9.2,89,0.00,-SN,BKN,0.05,4.0,WeatherDisplay:10.37,2013-03-03 22:51:00,
2013-03-03 17:56:00,22.3,19.5,29.73,SW,231,4.3,6.9,89,0.00,-SN,BKN,0.05,4.0,WeatherDisplay:10.37,2013-03-03 22:56:00,
2013-03-03 18:01:00,22.5,19.7,29.73,West,274,6.5,9.9,89,0.00,-SN,BKN,0.05,1.6,WeatherDisplay:10.37,2013-03-03 23:01:00,
2013-03-03 18:06:00,22.8,20.1,29.73,West,279,6.0,9.2,89,0.00,-SN,BKN,0.05,1.6,WeatherDisplay:10.37,2013-03-03 23:06:00,
2013-03-03 18:11:00,22.5,20.0,29.73,SW,225,3.2,5.8,90,0.00,-SN,BKN,0.05,0.0,WeatherDisplay:10.37,2013-03-03 23:11:00,
2013-03-03 18:16:00,23.0,20.2,29.73,West,269,5.6,8.1,89,0.00,-SN,BKN,0.05,1.6,WeatherDisplay:10.37,2013-03-03 23:16:00,
2013-03-03 18:21:00,22.8,20.1,29.73,SSW,212,4.0,5.8,89,0.00,-SN,BKN,0.05,0.0,WeatherDisplay:10.37,2013-03-03 23:21:00,
2013-03-03 18:26:00,22.8,20.1,29.73,SW,236,5.5,8.1,89,0.00,-SN,BKN,0.05,0.0,WeatherDisplay:10.37,2013-03-03 23:26:00,
2013-03-03 18:31:00,22.8,20.1,29.73,West,263,4.5,6.9,89,0.00,-SN,BKN,0.05,0.0,WeatherDisplay:10.37,2013-03-03 23:31:00,
2013-03-03 18:36:00,22.5,20.0,29.73,WSW,257,4.6,6.9,90,0.00,-SN,BKN,0.05,0.0,WeatherDisplay:10.37,2013-03-03 23:36:00,
2013-03-03 18:41:00,22.6,20.1,29.73,WSW,239,3.9,5.8,90,0.00,-SN,BKN,0.05,0.0,WeatherDisplay:10.37,2013-03-03 23:41:00,
2013-03-03 18:46:00,23.2,20.7,29.73,WSW,248,4.3,6.9,90,0.00,-SN,BKN,0.05,0.0,WeatherDisplay:10.37,2013-03-03 23:46:00,
2013-03-03 18:51:00,22.6,19.9,29.74,West,266,4.4,8.1,89,0.00,-SN,BKN,0.05,0.0,WeatherDisplay:10.37,2013-03-03 23:51:00,
2013-03-03 18:56:00,22.8,20.3,29.74,SW,221,3.7,6.9,90,0.00,-SN,BKN,0.05,0.0,WeatherDisplay:10.37,2013-03-03 23:56:00,
2013-03-03 19:01:00,22.8,20.3,29.74,West,265,3.3,4.6,90,0.00,-SN,BKN,0.05,0.0,WeatherDisplay:10.37,2013-03-04 00:01:00,
2013-03-03 19:06:00,23.2,20.7,29.74,SSW,203,2.8,4.6,90,0.00,-SN,BKN,0.05,0.0,WeatherDisplay:10.37,2013-03-04 00:06:00,
2013-03-03 19:11:00,23.4,20.6,29.74,West,273,4.6,6.9,89,0.00,-SN,BKN,0.05,0.0,WeatherDisplay:10.37,2013-03-04 00:11:00,
2013-03-03 19:16:00,23.2,20.7,29.74,West,271,5.2,8.1,90,0.00,-SN,BKN,0.05,0.0,WeatherDisplay:10.37,2013-03-04 00:16:00,
2013-03-03 19:21:00,23.4,20.9,29.74,West,278,6.0,8.1,90,0.00,-SN,BKN,0.05,0.0,WeatherDisplay:10.37,2013-03-04 00:21:00,
2013-03-03 19:26:00,23.4,20.9,29.74,West,271,4.4,5.8,90,0.00,-SN,BKN,0.05,0.0,WeatherDisplay:10.37,2013-03-04 00:26:00,
2013-03-03 19:31:00,23.0,20.8,29.74,WSW,239,2.0,4.6,91,0.00,-SN,BKN,0.05,0.0,WeatherDisplay:10.37,2013-03-04 00:31:00,
2013-03-03 19:36:00,22.8,20.6,29.74,SW,232,4.5,6.0,91,0.00,-SN,BKN,0.05,0.0,WeatherDisplay:10.37,2013-03-04 00:36:00,
2013-03-03 19:41:00,23.4,21.1,29.74,WSW,249,4.0,6.9,91,0.00,-SN,BKN,0.05,0.0,WeatherDisplay:10.37,2013-03-04 00:41:00,
2013-03-03 19:46:00,22.6,20.7,29.74,West,260,5.3,9.2,92,0.00,-SN,BKN,0.05,0.0,WeatherDisplay:10.37,2013-03-04 00:46:00,
2013-03-03 19:51:00,23.2,20.9,29.74,SW,223,5.1,8.1,91,0.00,-SN,BKN,0.05,0.0,WeatherDisplay:10.37,2013-03-04 00:51:00,
2013-03-03 19:56:00,23.5,21.6,29.74,West,266,5.1,8.4,92,0.00,-SN,BKN,0.05,0.0,WeatherDisplay:10.37,2013-03-04 00:56:00,
2013-03-03 20:01:00,22.8,21.1,29.74,West,266,5.5,8.1,93,0.00,-SN,BKN,0.05,0.0,WeatherDisplay:10.37,2013-03-04 01:01:00,
2013-03-03 20:06:00,23.0,21.3,29.74,West,275,5.5,8.3,93,0.00,-SN,BKN,0.05,0.0,WeatherDisplay:10.37,2013-03-04 01:06:00,
2013-03-03 20:11:00,23.4,21.4,29.75,WNW,295,5.1,6.9,92,0.00,-SN,BKN,0.05,0.0,WeatherDisplay:10.37,2013-03-04 01:11:00,
2013-03-03 20:16:00,23.5,21.8,29.75,West,261,4.6,9.2,93,0.00,-SN,BKN,0.05,0.0,WeatherDisplay:10.37,2013-03-04 01:16:00,
2013-03-03 20:21:00,23.2,21.7,29.76,SW,226,3.6,5.8,94,0.00,-SN,BKN,0.05,0.0,WeatherDisplay:10.37,2013-03-04 01:21:00,
2013-03-03 20:26:00,23.2,21.7,29.76,WSW,248,5.3,8.1,94,0.00,-SN,BKN,0.05,0.0,WeatherDisplay:10.37,2013-03-04 01:26:00,
2013-03-03 20:31:00,23.4,21.9,29.75,West,262,4.4,8.1,94,0.00,-SN,BKN,0.05,0.0,WeatherDisplay:10.37,2013-03-04 01:31:00,
2013-03-03 20:36:00,23.2,21.7,29.76,West,265,5.3,8.1,94,0.00,-SN,BKN,0.05,0.0,WeatherDisplay:10.37,2013-03-04 01:36:00,
2013-03-03 20:41:00,23.2,21.7,29.76,WSW,245,6.4,11.5,94,0.00,-SN,BKN,0.05,0.0,WeatherDisplay:10.37,2013-03-04 01:41:00,
2013-03-03 20:46:00,23.0,21.5,29.76,SW,236,4.4,6.9,94,0.00,-SN,BKN,0.05,0.0,WeatherDisplay:10.37,2013-03-04 01:46:00,
2013-03-03 20:51:00,23.2,21.7,29.76,WSW,250,5.3,9.2,94,0.00,-SN,BKN,0.05,0.0,WeatherDisplay:10.37,2013-03-04 01:51:00,
2013-03-03 20:56:00,23.0,21.5,29.76,WSW,237,4.3,6.9,94,0.00,-SN,BKN,0.05,0.0,WeatherDisplay:10.37,2013-03-04 01:56:00,
2013-03-03 21:01:00,23.2,21.7,29.76,West,264,4.2,8.1,94,0.00,-SN,BKN,0.05,0.0,WeatherDisplay:10.37,2013-03-04 02:01:00,
2013-03-03 21:06:00,23.4,21.9,29.76,WSW,244,3.6,8.1,94,0.00,-SN,BKN,0.05,0.0,WeatherDisplay:10.37,2013-03-04 02:06:00,
2013-03-03 21:11:00,23.4,21.9,29.76,West,278,5.1,8.1,94,0.00,-SN,BKN,0.05,0.0,WeatherDisplay:10.37,2013-03-04 02:11:00,
2013-03-03 21:16:00,23.2,21.5,29.76,WNW,299,7.2,11.5,93,0.00,-SN,BKN,0.05,0.0,WeatherDisplay:10.37,2013-03-04 02:16:00,
2013-03-03 21:21:00,23.2,21.5,29.76,WSW,242,5.3,8.1,93,0.00,-SN,BKN,0.05,0.0,WeatherDisplay:10.37,2013-03-04 02:21:00,
2013-03-03 21:26:00,23.2,21.5,29.76,WNW,286,4.8,12.1,93,0.00,-SN,BKN,0.05,0.0,WeatherDisplay:10.37,2013-03-04 02:26:00,
2013-03-03 21:31:00,23.4,21.6,29.76,West,281,5.4,6.9,93,0.00,-SN,BKN,0.05,0.0,WeatherDisplay:10.37,2013-03-04 02:31:00,
2013-03-03 21:36:00,23.0,21.3,29.76,WSW,239,6.8,11.5,93,0.00,-SN,BKN,0.05,0.0,WeatherDisplay:10.37,2013-03-04 02:36:00,
2013-03-03 21:41:00,23.4,21.6,29.76,WNW,302,5.4,8.1,93,0.00,-SN,BKN,0.05,0.0,WeatherDisplay:10.37,2013-03-04 02:41:00,
2013-03-03 21:46:00,23.4,21.4,29.76,NW,312,8.7,11.5,92,0.00,-SN,BKN,0.05,0.0,WeatherDisplay:10.37,2013-03-04 02:46:00,
2013-03-03 21:51:00,23.4,21.4,29.76,WNW,300,4.7,6.9,92,0.00,-SN,BKN,0.05,0.0,WeatherDisplay:10.37,2013-03-04 02:51:00,
2013-03-03 21:56:00,22.5,20.2,29.75,WNW,286,4.5,8.1,91,0.00,-SN,BKN,0.05,0.0,WeatherDisplay:10.37,2013-03-04 02:56:00,
2013-03-03 22:01:00,22.5,20.2,29.76,WNW,300,7.0,11.5,91,0.00,-SN,BKN,0.05,0.0,WeatherDisplay:10.37,2013-03-04 03:01:00,
2013-03-03 22:06:00,21.9,19.7,29.76,WSW,254,6.3,13.8,91,0.00,-SN,BKN,0.05,0.0,WeatherDisplay:10.37,2013-03-04 03:06:00,
2013-03-03 22:11:00,22.1,19.9,29.76,West,266,7.7,16.1,91,0.00,-SN,BKN,0.05,0.0,WeatherDisplay:10.37,2013-03-04 03:11:00,
2013-03-03 22:16:00,21.7,19.5,29.76,West,267,7.5,11.5,91,0.00,-SN,BKN,0.05,0.0,WeatherDisplay:10.37,2013-03-04 03:16:00,
2013-03-03 22:21:00,21.6,19.6,29.76,West,266,11.2,18.4,92,0.00,-SN,BKN,0.05,0.0,WeatherDisplay:10.37,2013-03-04 03:21:00,
2013-03-03 22:26:00,21.9,19.7,29.76,NW,304,7.5,10.4,91,0.00,-SN,BKN,0.05,0.0,WeatherDisplay:10.37,2013-03-04 03:26:00,
2013-03-03 22:31:00,21.7,19.5,29.75,NW,305,5.1,9.2,91,0.00,-SN,BKN,0.05,0.0,WeatherDisplay:10.37,2013-03-04 03:31:00,
2013-03-03 22:36:00,21.6,19.9,29.75,West,261,7.2,10.4,93,0.00,-SN,BKN,0.05,0.0,WeatherDisplay:10.37,2013-03-04 03:36:00,
2013-03-03 22:41:00,21.6,19.6,29.76,West,265,7.6,11.5,92,0.00,-SN,BKN,0.05,0.0,WeatherDisplay:10.37,2013-03-04 03:41:00,
2013-03-03 22:46:00,21.4,19.7,29.75,West,270,6.4,9.2,93,0.00,-SN,BKN,0.05,0.0,WeatherDisplay:10.37,2013-03-04 03:46:00,
2013-03-03 22:51:00,21.6,19.9,29.75,West,276,7.1,11.5,93,0.00,-SN,BKN,0.05,0.0,WeatherDisplay:10.37,2013-03-04 03:51:00,
2013-03-03 22:56:00,21.9,20.0,29.75,WNW,289,6.9,12.0,92,0.00,-SN,BKN,0.05,0.0,WeatherDisplay:10.37,2013-03-04 03:56:00,
2013-03-03 23:01:00,21.6,19.6,29.74,WNW,289,7.7,12.7,92,0.00,-SN,BKN,0.05,0.0,WeatherDisplay:10.37,2013-03-04 04:01:00,
2013-03-03 23:06:00,21.9,19.7,29.75,WNW,287,7.8,11.5,91,0.00,-SN,BKN,0.05,0.0,WeatherDisplay:10.37,2013-03-04 04:06:00,
2013-03-03 23:11:00,21.7,19.8,29.76,WNW,285,7.2,10.4,92,0.00,-SN,BKN,0.05,0.0,WeatherDisplay:10.37,2013-03-04 04:11:00,
2013-03-03 23:16:00,21.9,19.7,29.75,WSW,252,7.8,11.5,91,0.00,-SN,BKN,0.05,0.0,WeatherDisplay:10.37,2013-03-04 04:16:00,
2013-03-03 23:21:00,22.1,19.6,29.76,West,270,6.1,9.2,90,0.00,-SN,BKN,0.05,0.0,WeatherDisplay:10.37,2013-03-04 04:21:00,
2013-03-03 23:26:00,21.9,19.7,29.75,West,267,5.8,9.2,91,0.00,-SN,BKN,0.05,0.0,WeatherDisplay:10.37,2013-03-04 04:26:00,
2013-03-03 23:31:00,22.3,20.3,29.75,WSW,254,3.9,6.9,92,0.00,-SN,BKN,0.05,0.0,WeatherDisplay:10.37,2013-03-04 04:31:00,
2013-03-03 23:36:00,21.7,19.5,29.75,WSW,242,5.0,9.2,91,0.00,-SN,BKN,0.05,0.0,WeatherDisplay:10.37,2013-03-04 04:36:00,
2013-03-03 23:41:00,21.9,20.2,29.76,SW,227,3.9,5.8,93,0.00,-SN,BKN,0.05,0.0,WeatherDisplay:10.37,2013-03-04 04:41:00,
2013-03-03 23:46:00,21.9,20.0,29.76,WSW,240,5.0,9.2,92,0.00,-SN,BKN,0.05,0.0,WeatherDisplay:10.37,2013-03-04 04:46:00,
2013-03-03 23:51:00,21.6,19.6,29.76,SW,228,5.4,8.1,92,0.00,-SN,BKN,0.05,0.0,WeatherDisplay:10.37,2013-03-04 04:51:00,
2013-03-03 23:56:00,21.9,20.0,29.75,WNW,284,5.3,8.1,92,0.00,-SN,BKN,0.05,0.0,WeatherDisplay:10.37,2013-03-04 04:56:00,